Regional Weather Roundup
Issued by NWS

Home | Current Version | Previous Version | Graphics & Text | Print | Product List | Glossary On
Versions: 1 2 3 4 5 6 7 8 9 10 11 12 13 14 15 16 17 18 19 20 21 22 23 24 25 26 27 28 29 30 31 32 33 34 35 36 37 38 39 40 41 42 43 44 45 46 47 48 49 50
000
ASUS43 KLSX 231659
RWRMO

WEATHER SUMMARY FOR MISSOURI
NATIONAL WEATHER SERVICE SPRINGFIELD MO
1100 AM CST SUN NOV 23 2014

NOTE: "FAIR" INDICATES FEW OR NO CLOUDS BELOW 12,000 FEET WITH NO
       SIGNIFICANT WEATHER AND/OR OBSTRUCTIONS TO VISIBILITY.
       CURRENT SKY AND/OR WEATHER CONDITIONS ARE NOT AVAILABLE FOR
       CHILLICOTHE AND FARMINGTON.

MOZ001>031-035>038-043-044-053-054-231800-
...NORTHERN AND WESTERN MISSOURI...

CITY           SKY/WX    TMP DP  RH WIND       PRES   REMARKS
KANSAS CTY INT CLOUDY    56  55  97 S6        29.45F FOG
KANSAS C DTWN  CLOUDY    57  54  89 CALM      29.46F FOG
ST JOSEPH      LGT RAIN  55  53  93 CALM      29.47F FOG
CHILLICOTHE      N/A     55  54  96 S5        29.48F
KIRKSVILLE     LGT RAIN  54  53  97 S14       29.50F

$$
MOZ066>068-077>081-088>096-101>105-231800-
...SOUTHWEST MISSOURI...

CITY           SKY/WX    TMP DP  RH WIND       PRES   REMARKS
SPRINGFIELD    CLOUDY    55  53  93 SE13      29.47F FOG
JOPLIN         CLOUDY    62  55  77 S9        29.45F

$$
MOZ032>034-039>042-045>050-055>058-069>072-231800-
...CENTRAL MISSOURI...

CITY           SKY/WX    TMP DP  RH WIND       PRES   REMARKS
COLUMBIA       LGT RAIN  54  53  97 SE9       29.52F FOG
JEFFERSON CITY CLOUDY    54  53  97 E6        29.53F FOG
ROLLA          LGT RAIN  54  52  93 S7        29.51F
SEDALIA        CLOUDY    56  53  90 S12       29.49F FOG
OSAGE BEACH    CLOUDY    55  52  88 S7        29.51F

$$
MOZ051-052-059>065-231800-
...EAST CENTRAL MISSOURI...

CITY           SKY/WX    TMP DP  RH WIND       PRES   REMARKS
ST LOUIS INTL  LGT RAIN  57  53  86 SE17      29.58F FOG
SPIRIT OF STL  HVY RAIN  55  53  93 SE8       29.56F FOG
ST CHARLES     LGT RAIN  55  53  93 SE13      29.58F FOG

$$
MOZ072>076-082>087-097>100-106>115-231800-
...SOUTH CENTRAL AND SOUTHEAST MISSOURI...

CITY           SKY/WX    TMP DP  RH WIND       PRES   REMARKS
CAPE GIRARDEAU LGT RAIN  55  54  96 SE12      29.62F FOG
FARMINGTON     CLOUDY    54  54 100 E12G17    29.59F
POPLAR BLUFF   LGT RAIN  56  54  93 SE10      29.58F FOG
WEST PLAINS    LGT RAIN  54  52  93 SE9       29.54F FOG

$$



USA.gov is the U.S. government's official web portal to all federal, state and local government web resources and services.